| time (UTC) | temp C | wind direction | speed KPH | gust KPH | rain 1hr cm | rain 24hr cm | rain mn cm | humidity % | barometer mb |
| 20260508022516 | 13 | 337 | 12.9 | 27.4 | 0.00 | 0.00 | 0.00 | 73 | 1014.1 |
| 20260508022013 | 13 | 338 | 14.5 | 27.4 | 0.00 | 0.00 | 0.00 | 73 | 1014.1 |
| 20260508021513 | 13 | 331 | 16.1 | 29.0 | 0.00 | 0.00 | 0.00 | 73 | 1014.0 |
| 20260508021013 | 13 | 333 | 16.1 | 29.0 | 0.00 | 0.00 | 0.00 | 73 | 1014.1 |
| 20260508020513 | 13 | 348 | 11.3 | 29.0 | 0.00 | 0.00 | 0.00 | 73 | 1014.1 |
| 20260508020013 | 13 | 347 | 19.3 | 29.0 | 0.00 | 0.00 | 0.00 | 73 | 1014.1 |
| 20260508015513 | 13 | 340 | 17.7 | 29.0 | 0.00 | 0.00 | 0.00 | 73 | 1014.1 |
| 20260508015013 | 13 | 330 | 20.9 | 29.0 | 0.00 | 0.00 | 0.00 | 72 | 1014.1 |
| 20260508014513 | 13 | 355 | 14.5 | 32.2 | 0.00 | 0.00 | 0.00 | 72 | 1014.2 |
| 20260508014013 | 13 | 350 | 19.3 | 32.2 | 0.00 | 0.00 | 0.00 | 71 | 1014.3 |
| 20260508013513 | 13 | 326 | 14.5 | 32.2 | 0.00 | 0.00 | 0.00 | 70 | 1014.2 |
| 20260508013013 | 13 | 344 | 19.3 | 29.0 | 0.00 | 0.00 | 0.00 | 70 | 1014.4 |
| 20260508012513 | 13 | 350 | 16.1 | 30.6 | 0.00 | 0.00 | 0.00 | 69 | 1014.4 |
| 20260508012013 | 14 | 334 | 19.3 | 30.6 | 0.00 | 0.00 | 0.00 | 69 | 1014.4 |
| 20260508011513 | 14 | 330 | 20.9 | 30.6 | 0.00 | 0.00 | 0.00 | 69 | 1014.5 |
| 20260508011013 | 14 | 334 | 19.3 | 30.6 | 0.00 | 0.00 | 0.00 | 68 | 1014.5 |
| 20260508010513 | 14 | 344 | 19.3 | 29.0 | 0.00 | 0.00 | 0.00 | 68 | 1014.5 |
| 20260508010014 | 15 | 341 | 19.3 | 29.0 | 0.00 | 0.00 | 0.00 | 67 | 1014.5 |
| 20260508005514 | 15 | 343 | 20.9 | 29.0 | 0.00 | 0.00 | 0.00 | 66 | 1014.5 |
| 20260508005013 | 15 | 338 | 14.5 | 30.6 | 0.00 | 0.00 | 0.00 | 66 | 1014.4 |
| 20260508004513 | 15 | 345 | 17.7 | 30.6 | 0.00 | 0.00 | 0.00 | 66 | 1014.4 |
| 20260508004013 | 15 | 324 | 16.1 | 30.6 | 0.00 | 0.00 | 0.00 | 67 | 1014.5 |
| 20260508003513 | 15 | 331 | 22.5 | 33.8 | 0.00 | 0.00 | 0.00 | 65 | 1014.7 |
| 20260508003013 | 15 | 343 | 19.3 | 33.8 | 0.00 | 0.00 | 0.00 | 65 | 1014.8 |
| 20260508002513 | 15 | 331 | 20.9 | 33.8 | 0.00 | 0.00 | 0.00 | 65 | 1014.9 |
| 20260508002013 | 15 | 348 | 22.5 | 32.2 | 0.00 | 0.00 | 0.00 | 64 | 1014.8 |
| 20260508001513 | 15 | 329 | 20.9 | 33.8 | 0.00 | 0.00 | 0.00 | 65 | 1014.8 |
| 20260508001013 | 15 | 343 | 20.9 | 33.8 | 0.00 | 0.00 | 0.00 | 64 | 1014.8 |
| 20260508000513 | 15 | 334 | 20.9 | 33.8 | 0.00 | 0.00 | 0.00 | 64 | 1014.8 |
| 20260508000014 | 16 | 330 | 22.5 | 32.2 | 0.00 | 0.00 | 0.00 | 63 | 1014.8 |
| 20260507235513 | 16 | 336 | 20.9 | 32.2 | 0.00 | 0.00 | 0.00 | 63 | 1014.8 |
| 20260507235014 | 16 | 355 | 22.5 | 29.0 | 0.00 | 0.00 | 0.00 | 62 | 1014.8 |
| 20260507234513 | 16 | 347 | 22.5 | 30.6 | 0.00 | 0.00 | 0.00 | 61 | 1014.8 |
| 20260507234013 | 16 | 330 | 20.9 | 30.6 | 0.00 | 0.00 | 0.00 | 61 | 1014.8 |
| 20260507233513 | 16 | 337 | 20.9 | 30.6 | 0.00 | 0.00 | 0.00 | 60 | 1014.8 |
| 20260507233013 | 16 | 334 | 19.3 | 29.0 | 0.00 | 0.00 | 0.00 | 60 | 1014.8 |
| 20260507232513 | 16 | 316 | 16.1 | 29.0 | 0.00 | 0.00 | 0.00 | 60 | 1014.9 |
| 20260507232013 | 16 | 319 | 19.3 | 32.2 | 0.00 | 0.00 | 0.00 | 59 | 1015.0 |
| 20260507231513 | 17 | 338 | 22.5 | 32.2 | 0.00 | 0.00 | 0.00 | 59 | 1015.1 |
| 20260507231013 | 17 | 334 | 22.5 | 32.2 | 0.00 | 0.00 | 0.00 | 58 | 1015.1 |
| 20260507230513 | 17 | 343 | 20.9 | 30.6 | 0.00 | 0.00 | 0.00 | 57 | 1015.1 |
| 20260507230013 | 17 | 348 | 22.5 | 29.0 | 0.00 | 0.00 | 0.00 | 57 | 1015.2 |
| 20260507225513 | 17 | 341 | 17.7 | 29.0 | 0.00 | 0.00 | 0.00 | 58 | 1015.3 |
| 20260507225013 | 17 | 341 | 22.5 | 33.8 | 0.00 | 0.00 | 0.00 | 57 | 1015.4 |
| 20260507224513 | 17 | 337 | 17.7 | 33.8 | 0.00 | 0.00 | 0.00 | 57 | 1015.4 |
| 20260507224013 | 18 | 343 | 20.9 | 33.8 | 0.00 | 0.00 | 0.00 | 56 | 1015.5 |
| 20260507223513 | 18 | 337 | 22.5 | 29.0 | 0.00 | 0.00 | 0.00 | 55 | 1015.6 |
| 20260507223014 | 18 | 337 | 16.1 | 29.0 | 0.00 | 0.00 | 0.00 | 54 | 1015.6 |
| 20260507222513 | 18 | 348 | 16.1 | 27.4 | 0.00 | 0.00 | 0.00 | 55 | 1015.8 |
| 20260507222013 | 19 | 343 | 16.1 | 27.4 | 0.00 | 0.00 | 0.00 | 54 | 1015.8 |
| 20260507221513 | 19 | 341 | 16.1 | 27.4 | 0.00 | 0.00 | 0.00 | 53 | 1015.9 |
| 20260507221013 | 19 | 347 | 16.1 | 22.5 | 0.00 | 0.00 | 0.00 | 53 | 1015.9 |
| 20260507220513 | 20 | 347 | 12.9 | 22.5 | 0.00 | 0.00 | 0.00 | 52 | 1015.9 |
| 20260507220013 | 20 | 341 | 11.3 | 22.5 | 0.00 | 0.00 | 0.00 | 52 | 1016.0 |
| 20260507215515 | 20 | 18 | 12.9 | 22.5 | 0.00 | 0.00 | 0.00 | 52 | 1016.1 |
| 20260507215015 | 20 | 338 | 14.5 | 22.5 | 0.00 | 0.00 | 0.00 | 51 | 1016.1 |
| 20260507214513 | 20 | 350 | 11.3 | 20.9 | 0.00 | 0.00 | 0.00 | 52 | 1016.3 |
| 20260507214013 | 20 | 340 | 16.1 | 25.7 | 0.00 | 0.00 | 0.00 | 51 | 1016.3 |
| 20260507213513 | 20 | 351 | 11.3 | 25.7 | 0.00 | 0.00 | 0.00 | 51 | 1016.2 |
| 20260507213013 | 20 | 348 | 11.3 | 25.7 | 0.00 | 0.00 | 0.00 | 53 | 1016.1 |
| 20260507212514 | 20 | 343 | 14.5 | 24.1 | 0.00 | 0.00 | 0.00 | 51 | 1016.1 |
| 20260507212014 | 20 | 344 | 12.9 | 24.1 | 0.00 | 0.00 | 0.00 | 50 | 1016.1 |
| 20260507211513 | 20 | 333 | 12.9 | 24.1 | 0.00 | 0.00 | 0.00 | 51 | 1016.1 |
| 20260507211013 | 20 | 345 | 16.1 | 24.1 | 0.00 | 0.00 | 0.00 | 50 | 1016.1 |
| 20260507210516 | 20 | 345 | 14.5 | 24.1 | 0.00 | 0.00 | 0.00 | 50 | 1016.1 |
| 20260507210016 | 20 | 354 | 16.1 | 22.5 | 0.00 | 0.00 | 0.00 | 50 | 1016.0 |
| 20260507205513 | 21 | 336 | 11.3 | 22.5 | 0.00 | 0.00 | 0.00 | 51 | 1015.9 |
| 20260507205013 | 20 | 336 | 11.3 | 25.7 | 0.00 | 0.00 | 0.00 | 51 | 1016.0 |
| 20260507204513 | 20 | 338 | 12.9 | 25.7 | 0.00 | 0.00 | 0.00 | 49 | 1015.9 |
| 20260507204013 | 21 | 347 | 12.9 | 25.7 | 0.00 | 0.00 | 0.00 | 49 | 1015.9 |
| 20260507203513 | 20 | 350 | 9.7 | 22.5 | 0.00 | 0.00 | 0.00 | 51 | 1016.0 |
| 20260507203013 | 20 | 334 | 14.5 | 22.5 | 0.00 | 0.00 | 0.00 | 50 | 1016.1 |
| 20260507202513 | 20 | 340 | 11.3 | 22.5 | 0.00 | 0.00 | 0.00 | 52 | 1016.1 |
| 20260507202013 | 20 | 0 | 11.3 | 22.5 | 0.00 | 0.00 | 0.00 | 52 | 1016.2 |
| 20260507201513 | 20 | 352 | 12.9 | 22.5 | 0.00 | 0.00 | 0.00 | 52 | 1016.2 |
| 20260507201013 | 20 | 338 | 12.9 | 24.1 | 0.00 | 0.00 | 0.00 | 52 | 1016.2 |
| 20260507200513 | 20 | 350 | 14.5 | 24.1 | 0.00 | 0.00 | 0.00 | 51 | 1016.2 |
| 20260507200013 | 20 | 357 | 14.5 | 24.1 | 0.00 | 0.00 | 0.00 | 52 | 1016.2 |
| 20260507195513 | 20 | 355 | 9.7 | 19.3 | 0.00 | 0.00 | 0.00 | 50 | 1016.3 |
| 20260507195013 | 20 | 348 | 12.9 | 22.5 | 0.00 | 0.00 | 0.00 | 50 | 1016.3 |
| 20260507194513 | 20 | 348 | 11.3 | 22.5 | 0.00 | 0.00 | 0.00 | 50 | 1016.4 |
| 20260507194013 | 20 | 355 | 17.7 | 22.5 | 0.00 | 0.00 | 0.00 | 48 | 1016.4 |
| 20260507193513 | 20 | 345 | 11.3 | 22.5 | 0.00 | 0.00 | 0.00 | 49 | 1016.5 |
| 20260507193015 | 20 | 351 | 11.3 | 27.4 | 0.00 | 0.00 | 0.00 | 49 | 1016.4 |
| 20260507192513 | 20 | 340 | 11.3 | 27.4 | 0.00 | 0.00 | 0.00 | 50 | 1016.5 |
| 20260507192013 | 20 | 340 | 11.3 | 27.4 | 0.00 | 0.00 | 0.00 | 49 | 1016.5 |
| 20260507191513 | 20 | 350 | 9.7 | 27.4 | 0.00 | 0.00 | 0.00 | 49 | 1016.5 |
| 20260507191013 | 20 | 343 | 14.5 | 27.4 | 0.00 | 0.00 | 0.00 | 49 | 1016.5 |
| 20260507190513 | 20 | 337 | 11.3 | 27.4 | 0.00 | 0.00 | 0.00 | 50 | 1016.5 |
| 20260507190013 | 20 | 350 | 14.5 | 25.7 | 0.00 | 0.00 | 0.00 | 50 | 1016.5 |
| 20260507185513 | 20 | 338 | 12.9 | 22.5 | 0.00 | 0.00 | 0.00 | 50 | 1016.6 |
| 20260507185013 | 20 | 345 | 12.9 | 22.5 | 0.00 | 0.00 | 0.00 | 50 | 1016.7 |
| 20260507184513 | 20 | 348 | 9.7 | 25.7 | 0.00 | 0.00 | 0.00 | 51 | 1016.7 |
| 20260507184013 | 20 | 338 | 11.3 | 25.7 | 0.00 | 0.00 | 0.00 | 52 | 1016.6 |
| 20260507183513 | 19 | 344 | 16.1 | 25.7 | 0.00 | 0.00 | 0.00 | 52 | 1016.6 |
| 20260507183013 | 19 | 350 | 19.3 | 29.0 | 0.00 | 0.00 | 0.00 | 51 | 1016.7 |
| 20260507182513 | 19 | 343 | 14.5 | 29.0 | 0.00 | 0.00 | 0.00 | 53 | 1016.7 |
| 20260507182013 | 19 | 329 | 19.3 | 29.0 | 0.00 | 0.00 | 0.00 | 51 | 1016.8 |
| 20260507181513 | 19 | 341 | 20.9 | 27.4 | 0.00 | 0.00 | 0.00 | 52 | 1016.8 |
| 20260507181013 | 19 | 338 | 16.1 | 27.4 | 0.00 | 0.00 | 0.00 | 53 | 1016.8 |
| 20260507180513 | 18 | 341 | 19.3 | 27.4 | 0.00 | 0.00 | 0.00 | 52 | 1016.8 |
| 20260507180013 | 19 | 344 | 14.5 | 25.7 | 0.00 | 0.00 | 0.00 | 53 | 1016.8 |
| 20260507175513 | 19 | 352 | 14.5 | 24.1 | 0.00 | 0.00 | 0.00 | 54 | 1016.9 |
| 20260507175013 | 18 | 344 | 12.9 | 24.1 | 0.00 | 0.00 | 0.00 | 55 | 1016.9 |
| 20260507174513 | 18 | 344 | 12.9 | 24.1 | 0.00 | 0.00 | 0.00 | 56 | 1017.0 |
| 20260507174013 | 18 | 357 | 14.5 | 24.1 | 0.00 | 0.00 | 0.00 | 56 | 1017.0 |
| 20260507173513 | 18 | 354 | 12.9 | 24.1 | 0.00 | 0.00 | 0.00 | 60 | 1017.0 |
| 20260507173013 | 17 | 350 | 12.9 | 25.7 | 0.00 | 0.00 | 0.00 | 59 | 1017.0 |
| 20260507172513 | 17 | 350 | 16.1 | 25.7 | 0.00 | 0.00 | 0.00 | 59 | 1017.1 |
| 20260507172013 | 17 | 344 | 17.7 | 25.7 | 0.00 | 0.00 | 0.00 | 59 | 1017.1 |
| 20260507171513 | 17 | 340 | 17.7 | 24.1 | 0.00 | 0.00 | 0.00 | 58 | 1017.1 |
| 20260507171013 | 17 | 341 | 17.7 | 24.1 | 0.00 | 0.00 | 0.00 | 60 | 1017.1 |
| 20260507170513 | 17 | 340 | 16.1 | 24.1 | 0.00 | 0.00 | 0.00 | 59 | 1017.1 |
| 20260507170013 | 17 | 357 | 16.1 | 20.9 | 0.00 | 0.00 | 0.00 | 60 | 1017.1 |
| 20260507165513 | 17 | 4 | 11.3 | 22.5 | 0.00 | 0.00 | 0.00 | 64 | 1017.1 |
| 20260507165013 | 17 | 345 | 9.7 | 22.5 | 0.00 | 0.00 | 0.00 | 64 | 1017.1 |
| 20260507164513 | 17 | 344 | 12.9 | 22.5 | 0.00 | 0.00 | 0.00 | 61 | 1017.1 |
| 20260507164013 | 17 | 338 | 12.9 | 22.5 | 0.00 | 0.00 | 0.00 | 60 | 1017.1 |
| 20260507163512 | 17 | 338 | 11.3 | 20.9 | 0.00 | 0.00 | 0.00 | 61 | 1017.1 |
| 20260507163014 | 17 | 0 | 8.0 | 20.9 | 0.00 | 0.00 | 0.00 | 65 | 1017.1 |
| 20260507162512 | 16 | 350 | 12.9 | 19.3 | 0.00 | 0.00 | 0.00 | 66 | 1017.2 |
| 20260507162013 | 16 | 343 | 9.7 | 20.9 | 0.00 | 0.00 | 0.00 | 67 | 1017.1 |
| 20260507161512 | 16 | 350 | 11.3 | 20.9 | 0.00 | 0.00 | 0.00 | 68 | 1017.2 |
| 20260507161012 | 15 | 338 | 16.1 | 20.9 | 0.00 | 0.00 | 0.00 | 68 | 1017.1 |
| 20260507160514 | 15 | 338 | 14.5 | 17.7 | 0.00 | 0.00 | 0.00 | 71 | 1017.2 |
| 20260507160013 | 15 | 350 | 9.7 | 17.7 | 0.00 | 0.00 | 0.00 | 74 | 1017.2 |
| 20260507155513 | 14 | 340 | 8.0 | 17.7 | 0.00 | 0.00 | 0.00 | 75 | 1017.2 |
| 20260507155014 | 13 | 340 | 9.7 | 16.1 | 0.00 | 0.00 | 0.00 | 77 | 1017.2 |
| 20260507154513 | 13 | 344 | 11.3 | 17.7 | 0.00 | 0.00 | 0.00 | 76 | 1017.2 |
| 20260507154012 | 13 | 338 | 11.3 | 17.7 | 0.00 | 0.00 | 0.00 | 76 | 1017.2 |
| 20260507153513 | 13 | 344 | 11.3 | 17.7 | 0.00 | 0.00 | 0.00 | 77 | 1017.3 |
| 20260507153013 | 13 | 338 | 11.3 | 14.5 | 0.00 | 0.00 | 0.00 | 78 | 1017.2 |
| 20260507152513 | 13 | 344 | 6.4 | 14.5 | 0.00 | 0.00 | 0.00 | 79 | 1017.3 |
| 20260507152013 | 13 | 348 | 9.7 | 14.5 | 0.00 | 0.00 | 0.00 | 80 | 1017.2 |
| 20260507151512 | 12 | 338 | 9.7 | 16.1 | 0.00 | 0.00 | 0.00 | 80 | 1017.1 |
| 20260507151013 | 12 | 350 | 9.7 | 16.1 | 0.00 | 0.00 | 0.00 | 81 | 1017.2 |
| 20260507150513 | 12 | 333 | 9.7 | 16.1 | 0.00 | 0.00 | 0.00 | 81 | 1017.2 |
| 20260507150014 | 12 | 329 | 1.6 | 14.5 | 0.00 | 0.00 | 0.00 | 82 | 1017.1 |
| 20260507145514 | 12 | 331 | 8.0 | 14.5 | 0.00 | 0.00 | 0.00 | 82 | 1017.2 |
| 20260507145013 | 12 | 337 | 8.0 | 14.5 | 0.00 | 0.00 | 0.00 | 82 | 1017.2 |
| 20260507144513 | 12 | 0 | 1.6 | 11.3 | 0.00 | 0.00 | 0.00 | 82 | 1017.2 |
| 20260507144013 | 12 | 337 | 0.0 | 11.3 | 0.00 | 0.00 | 0.00 | 83 | 1017.3 |
| 20260507143512 | 12 | 333 | 4.8 | 11.3 | 0.00 | 0.00 | 0.00 | 83 | 1017.2 |
| 20260507143013 | 12 | 0 | 0.0 | 0.0 | 0.00 | 0.00 | 0.00 | 83 | 1017.2 |
| 20260507142513 | 11 | 0 | 0.0 | 0.0 | 0.00 | 0.00 | 0.00 | 83 | 1017.1 |
| 20260507142014 | 11 | 0 | 0.0 | 11.3 | 0.00 | 0.00 | 0.00 | 83 | 1017.1 |
| 20260507141513 | 11 | 0 | 0.0 | 11.3 | 0.00 | 0.00 | 0.00 | 83 | 1017.1 |
| 20260507141014 | 11 | 354 | 0.0 | 11.3 | 0.00 | 0.00 | 0.00 | 83 | 1017.0 |
| 20260507140512 | 11 | 0 | 0.0 | 0.0 | 0.00 | 0.00 | 0.00 | 83 | 1017.0 |
| 20260507140013 | 11 | 0 | 0.0 | 0.0 | 0.00 | 0.00 | 0.00 | 83 | 1017.0 |
| 20260507135513 | 11 | 0 | 0.0 | 0.0 | 0.00 | 0.00 | 0.00 | 83 | 1016.9 |
| 20260507135013 | 11 | 0 | 0.0 | 0.0 | 0.00 | 0.00 | 0.00 | 83 | 1016.9 |
| 20260507134513 | 11 | 0 | 0.0 | 0.0 | 0.00 | 0.00 | 0.00 | 83 | 1016.8 |
| 20260507134013 | 11 | 0 | 0.0 | 0.0 | 0.00 | 0.00 | 0.00 | 83 | 1016.9 |
| 20260507133513 | 11 | 0 | 0.0 | 0.0 | 0.00 | 0.00 | 0.00 | 82 | 1016.9 |
| 20260507133014 | 11 | 0 | 0.0 | 12.9 | 0.00 | 0.00 | 0.00 | 82 | 1016.9 |
| 20260507132513 | 11 | 0 | 0.0 | 12.9 | 0.00 | 0.00 | 0.00 | 82 | 1016.8 |
| 20260507132012 | 11 | 350 | 0.0 | 12.9 | 0.00 | 0.00 | 0.00 | 82 | 1016.8 |
| 20260507131513 | 11 | 0 | 6.4 | 6.4 | 0.00 | 0.00 | 0.00 | 82 | 1016.8 |
| 20260507131013 | 11 | 0 | 0.0 | 3.2 | 0.00 | 0.00 | 0.00 | 82 | 1016.9 |
| 20260507130513 | 11 | 338 | 0.0 | 3.2 | 0.00 | 0.00 | 0.00 | 82 | 1016.8 |
| 20260507130013 | 11 | 0 | 0.0 | 0.0 | 0.00 | 0.00 | 0.00 | 82 | 1016.9 |
| 20260507125513 | 11 | 0 | 0.0 | 9.7 | 0.00 | 0.00 | 0.00 | 82 | 1016.9 |
| 20260507125013 | 11 | 350 | 0.0 | 9.7 | 0.00 | 0.00 | 0.00 | 82 | 1016.9 |
| 20260507124513 | 11 | 336 | 0.0 | 9.7 | 0.00 | 0.00 | 0.00 | 82 | 1016.8 |
| 20260507124013 | 12 | 0 | 0.0 | 0.0 | 0.00 | 0.00 | 0.00 | 82 | 1016.8 |
| 20260507123512 | 12 | 0 | 0.0 | 9.7 | 0.00 | 0.00 | 0.00 | 82 | 1016.9 |
| 20260507122513 | 12 | 322 | 0.0 | 9.7 | 0.00 | 0.00 | 0.00 | 82 | 1017.0 |
| 20260507122013 | 12 | 355 | 0.0 | 4.8 | 0.00 | 0.00 | 0.00 | 82 | 1017.1 |
| 20260507121512 | 12 | 0 | 0.0 | 8.0 | 0.00 | 0.00 | 0.00 | 82 | 1017.1 |
| 20260507121013 | 12 | 0 | 0.0 | 8.0 | 0.00 | 0.00 | 0.00 | 82 | 1017.1 |
| 20260507120513 | 12 | 357 | 0.0 | 8.0 | 0.00 | 0.00 | 0.00 | 82 | 1017.1 |
| 20260507120012 | 12 | 0 | 0.0 | 0.0 | 0.00 | 0.00 | 0.00 | 83 | 1017.1 |
| 20260507115512 | 12 | 0 | 0.0 | 9.7 | 0.00 | 0.00 | 0.00 | 83 | 1017.1 |
| 20260507115013 | 12 | 0 | 0.0 | 9.7 | 0.00 | 0.00 | 0.00 | 83 | 1017.2 |
| 20260507114513 | 12 | 357 | 0.0 | 9.7 | 0.00 | 0.00 | 0.00 | 83 | 1017.2 |
| 20260507114012 | 12 | 338 | 0.0 | 9.7 | 0.00 | 0.00 | 0.00 | 83 | 1017.2 |
| 20260507113513 | 12 | 340 | 3.2 | 6.4 | 0.00 | 0.00 | 0.00 | 83 | 1017.3 |
| 20260507113012 | 12 | 0 | 1.6 | 1.6 | 0.00 | 0.00 | 0.00 | 83 | 1017.2 |
| 20260507112514 | 12 | 0 | 0.0 | 0.0 | 0.00 | 0.00 | 0.00 | 83 | 1017.2 |
| 20260507112013 | 12 | 0 | 0.0 | 4.8 | 0.00 | 0.00 | 0.00 | 83 | 1017.3 |
| 20260507111512 | 12 | 0 | 0.0 | 4.8 | 0.00 | 0.00 | 0.00 | 83 | 1017.3 |
| 20260507111012 | 12 | 354 | 0.0 | 4.8 | 0.00 | 0.00 | 0.00 | 84 | 1017.3 |
| 20260507110512 | 12 | 0 | 0.0 | 0.0 | 0.00 | 0.00 | 0.00 | 83 | 1017.3 |
| 20260507110012 | 12 | 0 | 0.0 | 0.0 | 0.00 | 0.00 | 0.00 | 83 | 1017.3 |
| 20260507105513 | 12 | 0 | 0.0 | 12.9 | 0.00 | 0.00 | 0.00 | 83 | 1017.3 |
| 20260507105013 | 12 | 0 | 0.0 | 12.9 | 0.00 | 0.00 | 0.00 | 83 | 1017.3 |
| 20260507104512 | 12 | 354 | 0.0 | 12.9 | 0.00 | 0.00 | 0.00 | 83 | 1017.4 |
| 20260507104016 | 12 | 345 | 1.6 | 12.9 | 0.00 | 0.00 | 0.00 | 83 | 1017.4 |
| 20260507103512 | 12 | 0 | 0.0 | 9.7 | 0.00 | 0.00 | 0.00 | 83 | 1017.5 |
| 20260507103012 | 12 | 0 | 1.6 | 9.7 | 0.00 | 0.00 | 0.00 | 82 | 1017.6 |
| 20260507102512 | 12 | 333 | 0.0 | 9.7 | 0.00 | 0.00 | 0.00 | 82 | 1017.6 |
| 20260507102012 | 12 | 0 | 3.2 | 9.7 | 0.00 | 0.00 | 0.00 | 82 | 1017.7 |
| 20260507101512 | 12 | 338 | 0.0 | 9.7 | 0.00 | 0.00 | 0.00 | 82 | 1017.7 |
| 20260507101012 | 12 | 347 | 0.0 | 3.2 | 0.00 | 0.00 | 0.00 | 82 | 1017.7 |
| 20260507100512 | 12 | 0 | 0.0 | 0.0 | 0.00 | 0.00 | 0.00 | 82 | 1017.7 |
| 20260507100012 | 12 | 0 | 0.0 | 0.0 | 0.00 | 0.00 | 0.00 | 82 | 1017.8 |
| 20260507095512 | 12 | 0 | 0.0 | 0.0 | 0.00 | 0.00 | 0.00 | 82 | 1017.8 |
| 20260507095012 | 12 | 0 | 0.0 | 9.7 | 0.00 | 0.00 | 0.00 | 82 | 1017.8 |
| 20260507094513 | 12 | 0 | 0.0 | 9.7 | 0.00 | 0.00 | 0.00 | 82 | 1017.8 |
| 20260507094012 | 12 | 330 | 0.0 | 9.7 | 0.00 | 0.00 | 0.00 | 82 | 1017.9 |
| 20260507093512 | 12 | 0 | 0.0 | 0.0 | 0.00 | 0.00 | 0.00 | 82 | 1017.9 |
| 20260507093012 | 12 | 0 | 0.0 | 9.7 | 0.00 | 0.00 | 0.00 | 83 | 1017.9 |
| 20260507092512 | 12 | 0 | 0.0 | 9.7 | 0.00 | 0.00 | 0.00 | 83 | 1018.0 |
| 20260507092012 | 12 | 341 | 0.0 | 9.7 | 0.00 | 0.00 | 0.00 | 83 | 1018.0 |
| 20260507091513 | 12 | 0 | 0.0 | 0.0 | 0.00 | 0.00 | 0.00 | 83 | 1018.1 |
| 20260507091012 | 12 | 0 | 0.0 | 0.0 | 0.00 | 0.00 | 0.00 | 83 | 1018.1 |
| 20260507090513 | 12 | 0 | 0.0 | 0.0 | 0.00 | 0.00 | 0.00 | 83 | 1018.1 |
| 20260507090012 | 12 | 0 | 0.0 | 0.0 | 0.00 | 0.00 | 0.00 | 83 | 1018.2 |
| 20260507085512 | 12 | 0 | 0.0 | 0.0 | 0.00 | 0.00 | 0.00 | 83 | 1018.2 |
| 20260507085013 | 12 | 0 | 0.0 | 0.0 | 0.00 | 0.00 | 0.00 | 84 | 1018.2 |
| 20260507084512 | 12 | 0 | 0.0 | 0.0 | 0.00 | 0.00 | 0.00 | 84 | 1018.2 |
| 20260507084013 | 12 | 0 | 0.0 | 0.0 | 0.00 | 0.00 | 0.00 | 84 | 1018.3 |
| 20260507083512 | 12 | 0 | 0.0 | 0.0 | 0.00 | 0.00 | 0.00 | 84 | 1018.3 |
| 20260507083012 | 12 | 0 | 0.0 | 0.0 | 0.00 | 0.00 | 0.00 | 83 | 1018.2 |
| 20260507082512 | 12 | 0 | 0.0 | 0.0 | 0.00 | 0.00 | 0.00 | 83 | 1018.3 |
| 20260507082012 | 12 | 0 | 0.0 | 0.0 | 0.00 | 0.00 | 0.00 | 83 | 1018.3 |
| 20260507081512 | 12 | 0 | 0.0 | 0.0 | 0.00 | 0.00 | 0.00 | 83 | 1018.2 |
| 20260507081012 | 12 | 0 | 0.0 | 0.0 | 0.00 | 0.00 | 0.00 | 83 | 1018.2 |
| 20260507080513 | 12 | 0 | 0.0 | 11.3 | 0.00 | 0.00 | 0.00 | 84 | 1018.2 |
| 20260507080012 | 12 | 0 | 0.0 | 11.3 | 0.00 | 0.00 | 0.00 | 84 | 1018.2 |
| 20260507075512 | 12 | 343 | 0.0 | 11.3 | 0.00 | 0.00 | 0.00 | 84 | 1018.2 |
| 20260507075012 | 12 | 330 | 1.6 | 19.3 | 0.00 | 0.00 | 0.00 | 84 | 1018.3 |
| 20260507074515 | 12 | 351 | 0.0 | 19.3 | 0.00 | 0.00 | 0.00 | 84 | 1018.2 |
| 20260507074012 | 12 | 333 | 0.0 | 19.3 | 0.00 | 0.00 | 0.00 | 84 | 1018.2 |
| 20260507073512 | 12 | 348 | 8.0 | 16.1 | 0.00 | 0.00 | 0.00 | 85 | 1018.2 |
| 20260507073016 | 12 | 340 | 6.4 | 14.5 | 0.00 | 0.00 | 0.00 | 85 | 1018.2 |
| 20260507072512 | 12 | 0 | 0.0 | 6.4 | 0.00 | 0.00 | 0.00 | 85 | 1018.2 |
| 20260507072012 | 13 | 352 | 0.0 | 16.1 | 0.00 | 0.00 | 0.00 | 85 | 1018.2 |
| 20260507071512 | 13 | 0 | 3.2 | 16.1 | 0.00 | 0.00 | 0.00 | 85 | 1018.1 |
| 20260507071013 | 13 | 344 | 0.0 | 16.1 | 0.00 | 0.00 | 0.00 | 85 | 1018.1 |
| 20260507070512 | 13 | 354 | 1.6 | 12.9 | 0.00 | 0.00 | 0.00 | 85 | 1018.2 |
| 20260507070016 | 13 | 326 | 4.8 | 22.5 | 0.00 | 0.00 | 0.00 | 85 | 1018.2 |
| 20260507065512 | 13 | 340 | 0.0 | 22.5 | 0.00 | 0.00 | 0.00 | 85 | 1018.2 |
| 20260507065012 | 13 | 345 | 0.0 | 22.5 | 0.00 | 0.00 | 0.00 | 85 | 1018.2 |
| 20260507064513 | 13 | 341 | 4.8 | 19.3 | 0.00 | 0.00 | 0.00 | 85 | 1018.2 |
| 20260507064015 | 13 | 348 | 3.2 | 19.3 | 0.00 | 0.00 | 0.00 | 85 | 1018.2 |
| 20260507063512 | 13 | 334 | 0.0 | 19.3 | 0.00 | 0.00 | 0.00 | 85 | 1018.2 |
| 20260507063012 | 13 | 340 | 11.3 | 16.1 | 0.00 | 0.00 | 0.00 | 85 | 1018.3 |
| 20260507062513 | 13 | 331 | 0.0 | 11.3 | 0.00 | 0.00 | 0.00 | 85 | 1018.3 |
| 20260507062013 | 13 | 355 | 1.6 | 11.3 | 0.00 | 0.00 | 0.00 | 85 | 1018.3 |
| 20260507061512 | 13 | 0 | 0.0 | 19.3 | 0.00 | 0.00 | 0.00 | 85 | 1018.3 |
| 20260507061013 | 13 | 334 | 0.0 | 19.3 | 0.00 | 0.00 | 0.00 | 85 | 1018.4 |
| 20260507060513 | 13 | 337 | 8.0 | 19.3 | 0.00 | 0.00 | 0.00 | 85 | 1018.4 |
| 20260507060012 | 13 | 350 | 6.4 | 14.5 | 0.00 | 0.00 | 0.00 | 85 | 1018.4 |
| 20260507055513 | 13 | 357 | 6.4 | 17.7 | 0.00 | 0.00 | 0.00 | 85 | 1018.4 |
| 20260507055017 | 13 | 344 | 3.2 | 17.7 | 0.00 | 0.00 | 0.00 | 85 | 1018.5 |
| 20260507054513 | 13 | 341 | 9.7 | 17.7 | 0.00 | 0.00 | 0.00 | 86 | 1018.5 |
| 20260507054013 | 13 | 345 | 11.3 | 17.7 | 0.00 | 0.00 | 0.00 | 86 | 1018.5 |
| 20260507053512 | 13 | 341 | 8.0 | 17.7 | 0.00 | 0.00 | 0.00 | 86 | 1018.5 |
| 20260507053012 | 13 | 350 | 6.4 | 17.7 | 0.00 | 0.00 | 0.00 | 87 | 1018.5 |
| 20260507052512 | 13 | 345 | 9.7 | 17.7 | 0.00 | 0.00 | 0.00 | 88 | 1018.5 |
| 20260507052013 | 13 | 338 | 6.4 | 17.7 | 0.00 | 0.00 | 0.00 | 88 | 1018.5 |
| 20260507051512 | 13 | 338 | 9.7 | 17.7 | 0.00 | 0.00 | 0.00 | 88 | 1018.5 |
| 20260507051012 | 13 | 344 | 9.7 | 17.7 | 0.00 | 0.00 | 0.00 | 88 | 1018.5 |
| 20260507050513 | 13 | 352 | 9.7 | 17.7 | 0.00 | 0.00 | 0.00 | 89 | 1018.5 |
| 20260507050012 | 13 | 333 | 9.7 | 17.7 | 0.00 | 0.00 | 0.00 | 89 | 1018.5 |
| 20260507045512 | 13 | 337 | 9.7 | 17.7 | 0.00 | 0.00 | 0.00 | 89 | 1018.5 |
| 20260507045012 | 13 | 357 | 11.3 | 17.7 | 0.00 | 0.00 | 0.00 | 89 | 1018.5 |
| 20260507044512 | 13 | 343 | 11.3 | 20.9 | 0.00 | 0.00 | 0.00 | 89 | 1018.6 |
| 20260507044016 | 13 | 337 | 12.9 | 20.9 | 0.00 | 0.00 | 0.00 | 89 | 1018.6 |
| 20260507043512 | 13 | 338 | 9.7 | 20.9 | 0.00 | 0.00 | 0.00 | 89 | 1018.6 |
| 20260507043014 | 13 | 355 | 9.7 | 19.3 | 0.00 | 0.00 | 0.00 | 89 | 1018.6 |
| 20260507042512 | 13 | 338 | 11.3 | 17.7 | 0.00 | 0.00 | 0.00 | 88 | 1018.6 |
| 20260507042012 | 13 | 343 | 8.0 | 16.1 | 0.00 | 0.00 | 0.00 | 88 | 1018.6 |
| 20260507041512 | 13 | 340 | 12.9 | 16.1 | 0.00 | 0.00 | 0.00 | 88 | 1018.6 |
| 20260507041012 | 13 | 347 | 9.7 | 12.9 | 0.00 | 0.00 | 0.00 | 88 | 1018.6 |
| 20260507040512 | 13 | 340 | 0.0 | 12.9 | 0.00 | 0.00 | 0.00 | 88 | 1018.5 |
| 20260507040013 | 13 | 337 | 1.6 | 17.7 | 0.00 | 0.00 | 0.00 | 88 | 1018.5 |
| 20260507035513 | 13 | 348 | 9.7 | 17.7 | 0.00 | 0.00 | 0.00 | 88 | 1018.5 |
| 20260507035012 | 13 | 343 | 8.0 | 17.7 | 0.00 | 0.00 | 0.00 | 88 | 1018.5 |
| 20260507034514 | 13 | 0 | 3.2 | 16.1 | 0.00 | 0.00 | 0.00 | 88 | 1018.5 |
| 20260507034012 | 13 | 345 | 0.0 | 16.1 | 0.00 | 0.00 | 0.00 | 88 | 1018.4 |
| 20260507033513 | 13 | 350 | 9.7 | 14.5 | 0.00 | 0.00 | 0.00 | 87 | 1018.4 |
| 20260507033013 | 13 | 338 | 9.7 | 12.9 | 0.00 | 0.00 | 0.00 | 87 | 1018.3 |
| 20260507032512 | 13 | 0 | 0.0 | 12.9 | 0.00 | 0.00 | 0.00 | 87 | 1018.3 |
| 20260507032013 | 13 | 348 | 0.0 | 12.9 | 0.00 | 0.00 | 0.00 | 86 | 1018.3 |
| 20260507031516 | 13 | 340 | 6.4 | 12.9 | 0.00 | 0.00 | 0.00 | 86 | 1018.3 |
| 20260507031012 | 13 | 343 | 3.2 | 12.9 | 0.00 | 0.00 | 0.00 | 86 | 1018.3 |
| 20260507030512 | 13 | 343 | 0.0 | 12.9 | 0.00 | 0.00 | 0.00 | 86 | 1018.3 |
| 20260507030012 | 13 | 348 | 0.0 | 12.9 | 0.00 | 0.00 | 0.00 | 86 | 1018.3 |
| 20260507025512 | 13 | 350 | 4.8 | 12.9 | 0.00 | 0.00 | 0.00 | 85 | 1018.3 |
| 20260507025012 | 13 | 331 | 1.6 | 12.9 | 0.00 | 0.00 | 0.00 | 85 | 1018.3 |
| 20260507024512 | 14 | 338 | 0.0 | 12.9 | 0.00 | 0.00 | 0.00 | 85 | 1018.3 |
| 20260507024012 | 14 | 341 | 9.7 | 12.9 | 0.00 | 0.00 | 0.00 | 84 | 1018.2 |
| 20260507023512 | 14 | 351 | 8.0 | 12.9 | 0.00 | 0.00 | 0.00 | 84 | 1018.2 |
| 20260507023014 | 14 | 347 | 8.0 | 12.9 | 0.00 | 0.00 | 0.00 | 83 | 1018.2 |